SKY382 RJKA-RJFK

Flight info

Callsign SKY382
Flight time 0h 46m
Altitude 25000
Route RURIK B597 TGE Y14 KINKO
Aircraft B738/M-SDE2E3FGHIRWXY/LB1

Departure

Time 2026-05-01 12:53
Airport Amami Airport (RJKA)

Arrival

Time 2026-05-01 13:39
Airport Kagoshima Airport (RJFK)
Time Latitude Longitude Altitude Speed Heading
2026-05-01 12:51 28.42286 129.70823 23 ft 0 kts 26°
2026-05-01 12:52 28.42410 129.70890 23 ft 55 kts 25°
2026-05-01 12:52 28.43261 129.71349 29 ft 144 kts 21°
2026-05-01 12:53 28.44927 129.72281 978 ft 168 kts 23°
2026-05-01 12:53 28.46064 129.72927 1458 ft 199 kts 23°
2026-05-01 12:53 28.47393 129.73681 1800 ft 222 kts 23°
2026-05-01 12:54 28.48801 129.74487 2427 ft 229 kts 23°
2026-05-01 12:54 28.51666 129.76133 3871 ft 231 kts 22°
2026-05-01 12:54 28.53093 129.76954 4564 ft 234 kts 23°
2026-05-01 12:55 28.56060 129.78657 5748 ft 247 kts 22°
2026-05-01 12:55 28.57637 129.79561 6264 ft 257 kts 22°
2026-05-01 12:55 28.59263 129.80494 6775 ft 267 kts 22°
2026-05-01 12:56 28.60961 129.81466 7187 ft 284 kts 22°
2026-05-01 12:56 28.62756 129.82498 7942 ft 290 kts 22°
2026-05-01 12:56 28.64561 129.83539 8825 ft 293 kts 22°
2026-05-01 12:56 28.66399 129.84599 9650 ft 298 kts 22°
2026-05-01 12:57 28.68279 129.85683 10376 ft 306 kts 22°
2026-05-01 12:57 28.72367 129.88030 11022 ft 347 kts 22°
2026-05-01 12:57 28.74543 129.89286 11714 ft 352 kts 22°
2026-05-01 12:58 28.76711 129.90542 12490 ft 354 kts 22°
2026-05-01 12:58 28.78915 129.91818 13255 ft 356 kts 22°
2026-05-01 12:58 28.81141 129.93107 13981 ft 359 kts 22°
2026-05-01 12:59 28.85668 129.95725 15157 ft 369 kts 22°
2026-05-01 12:59 28.87979 129.97062 15749 ft 374 kts 22°
2026-05-01 12:59 28.92653 129.99768 16944 ft 382 kts 21°
2026-05-01 13:00 28.97472 130.02564 18107 ft 391 kts 21°
2026-05-01 13:00 28.99891 130.03967 18642 ft 395 kts 21°
2026-05-01 13:01 29.04832 130.06834 19715 ft 401 kts 20°
2026-05-01 13:01 29.07333 130.08287 20233 ft 404 kts 20°
2026-05-01 13:01 29.12353 130.11206 21311 ft 409 kts 20°
2026-05-01 13:02 29.14903 130.12691 21907 ft 410 kts 20°
2026-05-01 13:07 29.67661 130.43723 25059 ft 404 kts 19°
2026-05-01 13:07 29.70133 130.45188 25055 ft 404 kts 19°
2026-05-01 13:07 29.72626 130.46668 25056 ft 403 kts 19°
2026-05-01 13:08 29.75119 130.48147 25061 ft 403 kts 19°
2026-05-01 13:08 29.77618 130.49631 25054 ft 403 kts 19°
2026-05-01 13:08 29.80116 130.51115 25056 ft 403 kts 19°
2026-05-01 13:08 29.82580 130.52581 25066 ft 403 kts 18°
2026-05-01 13:09 29.85073 130.54063 25059 ft 403 kts 18°
2026-05-01 13:09 29.87565 130.55546 25055 ft 403 kts 18°
2026-05-01 13:09 29.90055 130.57029 25048 ft 403 kts 18°
2026-05-01 13:09 29.92546 130.58514 25045 ft 402 kts 18°
2026-05-01 13:10 29.95038 130.60000 25047 ft 402 kts 18°
2026-05-01 13:10 29.97497 130.61467 25049 ft 402 kts 18°
2026-05-01 13:10 29.99989 130.62954 25059 ft 402 kts 18°
2026-05-01 13:10 30.02480 130.64442 25052 ft 402 kts 18°
2026-05-01 13:11 30.04966 130.65929 25050 ft 402 kts 18°
2026-05-01 13:11 30.07454 130.67420 25042 ft 402 kts 18°
2026-05-01 13:11 30.09942 130.68911 25043 ft 402 kts 18°
2026-05-01 13:11 30.12397 130.70384 25043 ft 402 kts 18°
2026-05-01 13:12 30.14879 130.71873 25045 ft 402 kts 18°
2026-05-01 13:12 30.17363 130.73365 25061 ft 402 kts 18°
2026-05-01 13:12 30.19853 130.74861 25043 ft 402 kts 18°
2026-05-01 13:12 30.22337 130.76354 25041 ft 402 kts 18°
2026-05-01 13:13 30.24796 130.77834 25037 ft 402 kts 18°
2026-05-01 13:13 30.27281 130.79330 25034 ft 402 kts 18°
2026-05-01 13:13 30.29767 130.80827 25038 ft 401 kts 18°
2026-05-01 13:13 30.32244 130.82319 25039 ft 401 kts 18°
2026-05-01 13:14 30.34724 130.83814 25049 ft 401 kts 18°
2026-05-01 13:14 30.37198 130.85304 25038 ft 401 kts 18°
2026-05-01 13:14 30.39678 130.86798 25042 ft 401 kts 18°
2026-05-01 13:14 30.42128 130.88274 25040 ft 402 kts 18°
2026-05-01 13:15 30.44612 130.89772 25005 ft 402 kts 18°
2026-05-01 13:15 30.47097 130.91273 25011 ft 402 kts 18°
2026-05-01 13:15 30.49582 130.92775 25005 ft 402 kts 18°
2026-05-01 13:15 30.52062 130.94274 25020 ft 402 kts 18°
2026-05-01 13:16 30.54544 130.95774 25004 ft 402 kts 18°
2026-05-01 13:16 30.57032 130.97271 25002 ft 400 kts 15°
2026-05-01 13:16 30.59606 130.98238 24991 ft 379 kts 357°
2026-05-01 13:17 30.66866 130.96813 24984 ft 341 kts 333°
2026-05-01 13:17 30.69073 130.95959 24802 ft 337 kts 333°
2026-05-01 13:18 30.73482 130.94275 24236 ft 330 kts 333°
2026-05-01 13:18 30.75660 130.93460 23898 ft 328 kts 333°
2026-05-01 13:18 30.77804 130.92661 23537 ft 326 kts 333°
2026-05-01 13:18 30.79965 130.91855 23119 ft 324 kts 333°
2026-05-01 13:19 30.82113 130.91053 22736 ft 322 kts 333°
2026-05-01 13:19 30.84245 130.90256 22359 ft 320 kts 333°
2026-05-01 13:19 30.88453 130.88682 21646 ft 314 kts 334°
2026-05-01 13:20 30.90527 130.87906 21293 ft 312 kts 334°
2026-05-01 13:20 30.92563 130.87146 20956 ft 310 kts 334°
2026-05-01 13:20 30.94613 130.86392 20614 ft 308 kts 334°
2026-05-01 13:21 30.98682 130.84900 20072 ft 302 kts 334°
2026-05-01 13:21 31.00695 130.84161 20048 ft 301 kts 334°
2026-05-01 13:21 31.02641 130.83448 20021 ft 290 kts 334°
2026-05-01 13:21 31.04532 130.82756 20006 ft 278 kts 334°
2026-05-01 13:22 31.06333 130.82095 20000 ft 265 kts 334°
2026-05-01 13:22 31.08047 130.81466 20001 ft 252 kts 333°
2026-05-01 13:22 31.09681 130.80867 20011 ft 240 kts 333°
2026-05-01 13:22 31.11243 130.80290 19999 ft 231 kts 332°
2026-05-01 13:23 31.12772 130.79715 20021 ft 232 kts 332°
2026-05-01 13:23 31.14326 130.79126 19819 ft 237 kts 333°
2026-05-01 13:23 31.15906 130.78530 19486 ft 240 kts 333°
2026-05-01 13:23 31.17488 130.77934 19109 ft 244 kts 333°
2026-05-01 13:24 31.19166 130.77297 18261 ft 267 kts 334°
2026-05-01 13:24 31.21031 130.76587 17185 ft 294 kts 335°
2026-05-01 13:24 31.23010 130.75848 16654 ft 299 kts 336°
2026-05-01 13:25 31.26950 130.74383 15713 ft 303 kts 336°
2026-05-01 13:25 31.28996 130.73613 15053 ft 312 kts 336°
2026-05-01 13:25 31.31073 130.72834 14609 ft 313 kts 336°
2026-05-01 13:25 31.33139 130.72061 14257 ft 310 kts 336°
2026-05-01 13:26 31.35167 130.71301 13818 ft 311 kts 336°
2026-05-01 13:26 31.37240 130.70523 13292 ft 313 kts 336°
2026-05-01 13:26 31.39313 130.69746 12892 ft 310 kts 337°
2026-05-01 13:26 31.41363 130.68978 12530 ft 307 kts 337°
2026-05-01 13:27 31.43374 130.68224 12186 ft 304 kts 337°
2026-05-01 13:27 31.45384 130.67470 11844 ft 301 kts 337°
2026-05-01 13:27 31.49330 130.65987 11180 ft 294 kts 337°
2026-05-01 13:28 31.53203 130.64529 10537 ft 289 kts 338°
2026-05-01 13:28 31.55095 130.63817 10292 ft 285 kts 338°
2026-05-01 13:29 31.58756 130.62439 10019 ft 269 kts 338°
2026-05-01 13:29 31.62271 130.61111 9478 ft 264 kts 338°
2026-05-01 13:30 31.69152 130.58529 8257 ft 256 kts 339°
2026-05-01 13:31 31.72515 130.57315 7777 ft 253 kts 341°
2026-05-01 13:31 31.77566 130.55581 6940 ft 250 kts 342°
2026-05-01 13:32 31.80867 130.54440 6469 ft 243 kts 342°
2026-05-01 13:33 31.85389 130.52868 5702 ft 221 kts 342°
2026-05-01 13:33 31.88278 130.51879 5131 ft 212 kts 341°
2026-05-01 13:34 31.91072 130.51393 4798 ft 204 kts 14°
2026-05-01 13:34 31.93113 130.53553 4770 ft 205 kts 53°
2026-05-01 13:35 31.94531 130.56460 4599 ft 203 kts 52°
2026-05-01 13:35 31.95248 130.57912 4406 ft 208 kts 52°
2026-05-01 13:35 31.95617 130.61148 3986 ft 218 kts 121°
2026-05-01 13:36 31.94493 130.62322 3809 ft 218 kts 149°
2026-05-01 13:36 31.93186 130.63273 3581 ft 223 kts 144°
2026-05-01 13:36 31.90585 130.64932 3107 ft 200 kts 143°
2026-05-01 13:37 31.89445 130.65812 2847 ft 197 kts 151°
2026-05-01 13:37 31.88642 130.66330 2651 ft 193 kts 154°
2026-05-01 13:37 31.87150 130.67328 2305 ft 180 kts 152°
2026-05-01 13:37 31.86105 130.68033 2090 ft 163 kts 151°
2026-05-01 13:38 31.84197 130.69334 1635 ft 155 kts 152°
2026-05-01 13:38 31.83271 130.69959 1378 ft 148 kts 150°
2026-05-01 13:38 31.82385 130.70559 1222 ft 147 kts 149°
2026-05-01 13:39 31.81796 130.70958 1066 ft 148 kts 152°
2026-05-01 13:39 31.80671 130.71713 910 ft 95 kts 150°
2026-05-01 13:39 31.80243 130.71996 903 ft 54 kts 151°
2026-05-01 13:39 31.80085 130.72105 897 ft 12 kts 163°
2026-05-01 13:40 31.80038 130.72100 896 ft 7 kts 207°
2026-05-01 13:40 31.80010 130.72057 895 ft 6 kts 238°
2026-05-01 13:40 31.80002 130.72043 895 ft 0 kts 238°
2026-05-01 13:41 31.80002 130.72042 895 ft 1 kts 238°
2026-05-01 13:41 31.79988 130.72015 895 ft 5 kts 242°
2026-05-01 13:41 31.79991 130.71962 896 ft 9 kts 297°
2026-05-01 13:41 31.80039 130.71915 897 ft 9 kts 332°
2026-05-01 13:42 31.80092 130.71879 898 ft 9 kts 323°
2026-05-01 13:42 31.80082 130.71818 898 ft 9 kts 236°
2026-05-01 13:42 31.80052 130.71758 898 ft 8 kts 241°
2026-05-01 13:42 31.80036 130.71726 898 ft 0 kts 240°
2026-05-01 13:43 31.80035 130.71725 898 ft 0 kts 240°